Location: Bergnershof
(48.9468°N, 10.9431°E)
Time: 00:15:05
(UTC+00:00)

USA 234 - Pass Details

Date: 03 March 2021
Orbit: 1102 x 1105 km, 123.0° (Epoch: 13 April)

Event Time Altitude Azimuth Distance (km) Brightness Sun altitude
Exits shadow 21:27:18 38° 298° (WNW) 1,613 4.4 -40.5°
Drops below altitude 10° 21:31:32 10° 272° (W) 2,963 5.9 -40.9°
Sets 21:34:04 0° 268° (W) 3,920 6.6 -41.2°
